GW4097 Weather Reports


time (UTC)temp
C
wind
direction
speed
KPH
gust
KPH
rain 1hr
cm
rain 24hr
cm
rain mn
cm
humidity
%
barometer
mb
20260906232704 18 343 9.7 11.3 0.00 0.00 0.00 72 1016.8
20260906232159 18 327 16.1 17.7 0.00 0.00 0.00 71 1017.2
20260906231658 18 316 12.9 14.5 0.00 0.00 0.00 71 1017.0
20260906231154 18 323 8.0 11.3 0.00 0.00 0.00 69 1017.4
20260906230653 19 331 14.5 17.7 0.00 0.00 0.00 68 1017.3
20260906230148 19 297 9.7 11.3 0.00 0.00 0.00 68 1017.4
20260906225641 18 306 9.7 14.5 0.00 0.00 0.00 68 1017.0
20260906225138 18 3 11.3 14.5 0.00 0.00 0.00 69 1017.2
20260906224632 18 329 9.7 12.9 0.00 0.00 0.00 69 1017.5
20260906224130 18 316 12.9 14.5 0.00 0.00 0.00 70 1017.4
20260906223625 18 295 8.0 9.7 0.00 0.00 0.00 70 1017.5
20260906223125 18 349 9.7 11.3 0.00 0.00 0.00 70 1017.4
20260906222624 18 314 9.7 14.5 0.00 0.00 0.00 70 1017.5
20260906222122 18 301 8.0 11.3 0.00 0.00 0.00 69 1017.7
20260906221620 18 305 4.8 6.4 0.00 0.00 0.00 69 1017.7
20260906221115 18 322 11.3 12.9 0.00 0.00 0.00 70 1017.6
20260906220611 18 316 8.0 11.3 0.00 0.00 0.00 70 1017.7
20260906220106 18 326 8.0 11.3 0.00 0.00 0.00 70 1017.5
20260906215604 18 346 6.4 9.7 0.00 0.00 0.00 70 1017.7
20260906215103 18 358 12.9 12.9 0.00 0.00 0.00 70 1017.6
20260906214601 18 306 6.4 6.4 0.00 0.00 0.00 70 1017.5
20260906214057 18 322 3.2 3.2 0.00 0.00 0.00 70 1017.6
20260906213555 18 341 9.7 11.3 0.00 0.00 0.00 69 1017.5
20260906213051 18 339 6.4 6.4 0.00 0.00 0.00 70 1017.5
20260906212544 18 313 6.4 6.4 0.00 0.00 0.00 71 1017.6
20260906212040 18 341 6.4 6.4 0.00 0.00 0.00 72 1017.5
20260906211539 17 321 3.2 4.8 0.00 0.00 0.00 73 1017.6
20260906211034 17 346 6.4 9.7 0.00 0.00 0.00 74 1017.9
20260906210530 17 358 9.7 11.3 0.00 0.00 0.00 74 1017.8
20260906210029 17 333 3.2 4.8 0.00 0.00 0.00 75 1017.7
20260906205525 17 339 3.2 4.8 0.00 0.00 0.00 75 1017.8
20260906205021 17 350 6.4 6.4 0.00 0.00 0.00 76 1018.0
20260906204520 17 341 4.8 4.8 0.00 0.00 0.00 77 1018.0
20260906204015 17 15 4.8 6.4 0.00 0.00 0.00 76 1018.1
20260906203509 17 350 6.4 6.4 0.00 0.00 0.00 76 1017.8
20260906203004 17 50 3.2 3.2 0.00 0.00 0.00 77 1017.9
20260906202500 16 339 3.2 4.8 0.00 0.00 0.00 78 1017.8
20260906201955 16 79 3.2 9.7 0.00 0.00 0.00 79 1018.0
20260906201444 16 28 3.2 4.8 0.00 0.00 0.00 79 1017.8
20260906200939 16 356 3.2 3.2 0.00 0.00 0.00 78 1018.0
20260906200435 16 57 3.2 4.8 0.00 0.00 0.00 78 1018.4
20260906195935 16 26 1.6 1.6 0.00 0.00 0.00 79 1018.2
20260906195431 16 19 3.2 3.2 0.00 0.00 0.00 79 1018.4
20260906194927 16 354 3.2 3.2 0.00 0.00 0.00 78 1018.2
20260906194423 16 355 1.6 3.2 0.00 0.00 0.00 79 1018.4
20260906193918 16 37 1.6 3.2 0.00 0.00 0.00 79 1018.4
20260906193413 16 22 3.2 3.2 0.00 0.00 0.00 79 1018.5
20260906192909 16 45 1.6 1.6 0.00 0.00 0.00 80 1018.4
20260906192408 16 18 1.6 1.6 0.00 0.00 0.00 80 1018.6
20260906191907 16 16 3.2 3.2 0.00 0.00 0.00 80 1018.7
20260906191402 15 80 9.7 11.3 0.00 0.00 0.00 79 1018.6
20260906190901 15 349 4.8 6.4 0.00 0.00 0.00 80 1018.7
20260906190400 15 26 8.0 11.3 0.00 0.00 0.00 81 1018.7
20260906185855 15 15 3.2 3.2 0.00 0.00 0.00 80 1018.5
20260906185354 16 9 9.7 12.9 0.00 0.00 0.00 80 1018.6
20260906184849 15 33 8.0 11.3 0.00 0.00 0.00 81 1018.7
20260906184344 15 9 9.7 11.3 0.00 0.00 0.00 82 1018.9
20260906183839 15 32 4.8 6.4 0.00 0.00 0.00 85 1018.8
20260906183335 15 27 6.4 6.4 0.00 0.00 0.00 85 1018.9
20260906182830 15 42 1.6 3.2 0.00 0.00 0.00 86 1018.9
20260906182325 15 7 3.2 4.8 0.00 0.00 0.00 86 1018.8
20260906181820 15 11 6.4 6.4 0.00 0.00 0.00 85 1019.1
20260906181317 15 20 4.8 6.4 0.00 0.00 0.00 84 1019.2
20260906180812 15 87 6.4 9.7 0.00 0.00 0.00 83 1019.2
20260906180312 15 43 3.2 3.2 0.00 0.00 0.00 83 1019.5
20260906175809 15 25 4.8 9.7 0.00 0.00 0.00 82 1018.9
20260906175307 15 15 6.4 9.7 0.00 0.00 0.00 83 1018.9
20260906174804 15 30 4.8 6.4 0.00 0.00 0.00 83 1018.8
20260906174303 15 5 6.4 9.7 0.00 0.00 0.00 84 1019.0
20260906173758 15 25 9.7 12.9 0.00 0.00 0.00 83 1019.3
20260906173254 13 318 11.3 16.1 0.00 0.00 0.00 84 1019.7
20260906172753 13 333 9.7 9.7 0.00 0.00 0.00 84 1019.8
20260906172249 13 320 12.9 17.7 0.00 0.00 0.00 83 1019.8
20260906171743 14 329 9.7 12.9 0.00 0.00 0.00 83 1019.7
20260906171239 13 312 14.5 14.5 0.00 0.00 0.00 83 1019.7
20260906170734 13 286 11.3 14.5 0.00 0.00 0.00 84 1020.0
20260906170231 13 314 14.5 16.1 0.00 0.00 0.00 83 1020.0
20260906165727 13 302 11.3 14.5 0.00 0.00 0.00 83 1020.3
20260906165226 13 309 16.1 17.7 0.00 0.00 0.00 84 1020.1
20260906164721 13 313 9.7 12.9 0.00 0.00 0.00 84 1020.3
20260906164216 13 316 9.7 12.9 0.00 0.00 0.00 84 1020.2
20260906163712 13 323 9.7 12.9 0.00 0.00 0.00 84 1020.2
20260906163208 12 306 12.9 16.1 0.00 0.00 0.00 85 1020.1
20260906162705 12 308 9.7 16.1 0.00 0.00 0.00 85 1020.4
20260906162205 12 305 8.0 9.7 0.00 0.00 0.00 85 1020.3
20260906161659 12 307 9.7 11.3 0.00 0.00 0.00 85 1020.6
20260906161158 12 312 8.0 11.3 0.00 0.00 0.00 84 1020.7
20260906160657 12 310 9.7 12.9 0.00 0.00 0.00 85 1020.4
20260906160156 12 324 16.1 17.7 0.00 0.00 0.00 85 1020.6
20260906155654 12 312 9.7 12.9 0.00 0.00 0.00 85 1020.4
20260906155150 12 312 9.7 12.9 0.00 0.00 0.00 85 1020.6
20260906154644 12 300 12.9 17.7 0.00 0.00 0.00 86 1020.6
20260906154139 12 320 17.7 20.9 0.00 0.00 0.00 86 1020.2
20260906153638 12 314 12.9 16.1 0.00 0.00 0.00 87 1020.4
20260906153133 12 305 20.9 25.7 0.00 0.00 0.00 87 1020.6
20260906152632 12 297 16.1 20.9 0.00 0.00 0.00 87 1020.7
20260906152127 12 326 17.7 20.9 0.00 0.00 0.00 88 1020.6
20260906151622 12 289 19.3 25.7 0.00 0.00 0.00 88 1020.9
20260906151118 12 301 16.1 20.9 0.00 0.00 0.00 88 1020.9
20260906150613 12 290 12.9 14.5 0.00 0.00 0.00 88 1020.8
20260906150109 13 305 14.5 17.7 0.00 0.00 0.00 88 1021.1
20260906145607 13 274 20.9 22.5 0.00 0.00 0.00 89 1021.1
20260906145101 13 268 14.5 16.1 0.00 0.00 0.00 89 1021.0
20260906144550 13 262 14.5 16.1 0.00 0.00 0.00 89 1021.2
20260906144046 13 262 16.1 20.9 0.00 0.00 0.00 89 1021.2
20260906143541 14 256 12.9 12.9 0.00 0.00 0.00 89 1021.2
20260906143037 14 258 11.3 12.9 0.00 0.00 0.00 89 1021.4
20260906142531 14 265 6.4 6.4 0.00 0.00 0.00 88 1021.3
20260906142027 15 327 4.8 4.8 0.00 0.00 0.00 87 1021.0
20260906141525 15 355 4.8 4.8 0.00 0.00 0.00 87 1020.8
20260906141020 15 13 0.0 1.6 0.00 0.00 0.00 87 1020.7
20260906140514 14 13 0.0 0.0 0.00 0.00 0.00 87 1020.4
20260906140014 15 43 1.6 3.2 0.00 0.00 0.00 87 1020.7
20260906135511 14 1 0.0 0.0 0.00 0.00 0.00 87 1020.7
20260906135007 14 15 4.8 6.4 0.00 0.00 0.00 86 1020.4
20260906134503 14 19 1.6 3.2 0.00 0.00 0.00 86 1020.6
20260906134003 14 23 0.0 1.6 0.00 0.00 0.00 85 1020.9
20260906133458 14 24 0.0 1.6 0.00 0.00 0.00 85 1020.7
20260906132954 14 9 1.6 1.6 0.00 0.00 0.00 86 1020.7
20260906132449 14 29 1.6 1.6 0.00 0.00 0.00 85 1020.4
20260906131944 14 20 1.6 3.2 0.00 0.00 0.00 85 1020.4
20260906131439 14 19 1.6 3.2 0.00 0.00 0.00 85 1020.6
20260906130935 14 32 3.2 3.2 0.00 0.00 0.00 85 1020.8
20260906130434 14 21 4.8 4.8 0.00 0.00 0.00 85 1020.6
20260906125928 14 12 3.2 4.8 0.00 0.00 0.00 85 1020.9
20260906125425 14 18 6.4 9.7 0.00 0.00 0.00 85 1020.7
20260906124920 14 23 8.0 11.3 0.00 0.00 0.00 85 1020.8
20260906124416 14 4 4.8 6.4 0.00 0.00 0.00 85 1020.7
20260906123915 14 6 8.0 9.7 0.00 0.00 0.00 85 1020.8
20260906123409 14 16 4.8 6.4 0.00 0.00 0.00 85 1020.7
20260906122904 14 2 4.8 4.8 0.00 0.00 0.00 85 1021.0
20260906122359 14 2 6.4 11.3 0.00 0.00 0.00 85 1020.8
20260906121856 13 340 8.0 12.9 0.00 0.00 0.00 85 1020.7
20260906121352 13 6 3.2 4.8 0.00 0.00 0.00 85 1020.7
20260906120848 13 3 6.4 11.3 0.00 0.00 0.00 86 1020.2
20260906120343 13 20 6.4 9.7 0.00 0.00 0.00 85 1020.1
20260906115839 13 14 9.7 12.9 0.00 0.00 0.00 85 1019.9
20260906115334 13 357 6.4 9.7 0.00 0.00 0.00 85 1020.3
20260906114834 13 0 8.0 11.3 0.00 0.00 0.00 85 1020.3
20260906114329 13 1 9.7 12.9 0.00 0.00 0.00 85 1020.1
20260906113824 13 9 11.3 12.9 0.00 0.00 0.00 85 1020.2
20260906113323 13 353 9.7 11.3 0.00 0.00 0.00 85 1020.3
20260906112819 13 355 9.7 11.3 0.00 0.00 0.00 85 1020.6
20260906112315 13 351 9.7 11.3 0.00 0.00 0.00 85 1020.4
20260906111814 13 354 11.3 12.9 0.00 0.00 0.00 85 1020.7
20260906111314 13 354 11.3 12.9 0.00 0.00 0.00 85 1020.7
20260906110809 13 9 9.7 11.3 0.00 0.00 0.00 85 1020.4
20260906110305 13 9 14.5 17.7 0.00 0.00 0.00 86 1020.6
20260906105804 13 355 9.7 12.9 0.00 0.00 0.00 85 1020.7
20260906105300 13 8 14.5 16.1 0.00 0.00 0.00 86 1020.7
20260906104755 13 354 14.5 17.7 0.00 0.00 0.00 86 1020.8
20260906104253 13 358 14.5 17.7 0.00 0.00 0.00 86 1020.7
20260906103751 13 338 9.7 11.3 0.00 0.00 0.00 85 1020.9
20260906103246 13 1 8.0 9.7 0.00 0.00 0.00 85 1021.0
20260906102741 13 359 12.9 14.5 0.00 0.00 0.00 85 1020.8
20260906102234 13 3 9.7 11.3 0.00 0.00 0.00 85 1020.9
20260906101729 13 0 12.9 14.5 0.00 0.00 0.00 85 1021.0
20260906101219 13 356 8.0 9.7 0.00 0.00 0.00 85 1020.9
20260906100714 13 355 9.7 11.3 0.00 0.00 0.00 85 1020.9
20260906100208 13 352 9.7 11.3 0.00 0.00 0.00 84 1020.8
20260906095704 13 344 9.7 12.9 0.00 0.00 0.00 84 1020.9
20260906095159 13 359 11.3 14.5 0.00 0.00 0.00 84 1020.7
20260906094657 13 7 14.5 16.1 0.00 0.00 0.00 84 1020.6
20260906094153 13 350 11.3 14.5 0.00 0.00 0.00 84 1020.7
20260906093649 13 351 11.3 14.5 0.00 0.00 0.00 84 1020.6
20260906093144 13 7 11.3 16.1 0.00 0.00 0.00 83 1020.4
20260906092638 14 358 12.9 12.9 0.00 0.00 0.00 83 1020.4
20260906092133 14 2 12.9 16.1 0.00 0.00 0.00 82 1020.4
20260906091629 14 12 14.5 20.9 0.00 0.00 0.00 82 1020.6
20260906091125 14 357 8.0 9.7 0.00 0.00 0.00 82 1020.6
20260906090620 14 338 9.7 12.9 0.00 0.00 0.00 82 1020.7
20260906090115 14 355 14.5 14.5 0.00 0.00 0.00 82 1020.8
20260906085614 14 5 9.7 14.5 0.00 0.00 0.00 82 1020.9
20260906085108 14 343 11.3 14.5 0.00 0.00 0.00 83 1021.1
20260906084603 13 344 8.0 11.3 0.00 0.00 0.00 83 1020.8
20260906084102 14 326 8.0 11.3 0.00 0.00 0.00 82 1021.0
20260906083558 14 339 6.4 6.4 0.00 0.00 0.00 82 1021.0
20260906083057 14 328 11.3 12.9 0.00 0.00 0.00 82 1021.1
20260906082553 14 329 6.4 9.7 0.00 0.00 0.00 82 1021.3
20260906082048 14 322 6.4 6.4 0.00 0.00 0.00 82 1021.4
20260906081544 14 333 4.8 4.8 0.00 0.00 0.00 82 1021.3
20260906081039 13 341 4.8 4.8 0.00 0.00 0.00 82 1021.5
20260906080536 13 324 4.8 4.8 0.00 0.00 0.00 83 1021.8
20260906080031 13 328 3.2 3.2 0.00 0.00 0.00 83 1021.5
20260906075525 13 1 6.4 9.7 0.00 0.00 0.00 84 1021.5
20260906075020 13 345 4.8 6.4 0.00 0.00 0.00 84 1021.5
20260906074515 13 358 9.7 11.3 0.00 0.00 0.00 84 1021.7
20260906074014 13 356 6.4 6.4 0.00 0.00 0.00 84 1021.5
20260906073509 13 350 8.0 9.7 0.00 0.00 0.00 84 1021.9
20260906073005 13 325 4.8 4.8 0.00 0.00 0.00 84 1021.8
20260906072500 13 331 4.8 4.8 0.00 0.00 0.00 84 1021.9
20260906071955 13 313 6.4 6.4 0.00 0.00 0.00 84 1022.1
20260906071451 13 307 6.4 6.4 0.00 0.00 0.00 84 1021.9
20260906070947 13 321 4.8 6.4 0.00 0.00 0.00 84 1021.8
20260906070442 13 322 4.8 4.8 0.00 0.00 0.00 83 1021.9
20260906065938 13 326 8.0 9.7 0.00 0.00 0.00 83 1022.1
20260906065432 13 320 8.0 9.7 0.00 0.00 0.00 83 1021.9
20260906064928 13 310 4.8 4.8 0.00 0.00 0.00 83 1022.1
20260906064424 13 323 8.0 9.7 0.00 0.00 0.00 83 1021.9
20260906063918 13 323 8.0 11.3 0.00 0.00 0.00 83 1022.0
20260906063414 13 317 14.5 14.5 0.00 0.00 0.00 83 1022.1
20260906062909 13 326 11.3 12.9 0.00 0.00 0.00 83 1022.2
20260906062408 13 306 9.7 11.3 0.00 0.00 0.00 83 1022.3
20260906061903 13 320 9.7 14.5 0.00 0.00 0.00 83 1022.3
20260906061354 13 319 8.0 11.3 0.00 0.00 0.00 83 1022.4
20260906060848 13 299 11.3 12.9 0.00 0.00 0.00 83 1022.3
20260906060346 13 300 14.5 16.1 0.00 0.00 0.00 84 1022.4
20260906055842 13 307 9.7 11.3 0.00 0.00 0.00 84 1022.2
20260906055337 13 294 12.9 14.5 0.00 0.00 0.00 83 1022.2
20260906054832 13 316 6.4 6.4 0.00 0.00 0.00 81 1022.2
20260906054327 13 324 4.8 4.8 0.00 0.00 0.00 79 1022.3
20260906053824 13 322 9.7 11.3 0.00 0.00 0.00 79 1022.0
20260906053319 13 326 6.4 6.4 0.00 0.00 0.00 77 1022.2
20260906052814 13 338 8.0 11.3 0.00 0.00 0.00 77 1022.2
20260906052311 13 337 6.4 6.4 0.00 0.00 0.00 77 1022.0
20260906051808 13 331 3.2 4.8 0.00 0.00 0.00 77 1021.9
20260906051307 13 339 4.8 4.8 0.00 0.00 0.00 77 1021.9
20260906050802 14 334 6.4 6.4 0.00 0.00 0.00 76 1022.1
20260906050258 14 318 9.7 9.7 0.00 0.00 0.00 76 1021.9
20260906045756 14 358 6.4 9.7 0.00 0.00 0.00 76 1021.8
20260906045251 14 346 6.4 9.7 0.00 0.00 0.00 76 1021.7
20260906044747 14 340 9.7 12.9 0.00 0.00 0.00 77 1021.7
20260906044242 14 339 9.7 12.9 0.00 0.00 0.00 76 1021.5
20260906043738 14 352 11.3 12.9 0.00 0.00 0.00 75 1021.4
20260906043233 15 329 14.5 17.7 0.00 0.00 0.00 74 1021.4
20260906042733 15 335 16.1 17.7 0.00 0.00 0.00 73 1021.7
20260906042232 15 310 11.3 14.5 0.00 0.00 0.00 72 1022.0
20260906041728 15 315 6.4 9.7 0.00 0.00 0.00 72 1021.8
20260906041223 15 4 11.3 12.9 0.00 0.00 0.00 71 1021.1
20260906040719 15 4 14.5 20.9 0.00 0.00 0.00 71 1020.8
20260906040214 15 343 11.3 12.9 0.00 0.00 0.00 71 1021.1
20260906035709 15 351 12.9 16.1 0.00 0.03 0.03 71 1020.9
20260906035204 15 0 9.7 12.9 0.00 0.03 0.03 71 1020.4
20260906034658 15 14 11.3 14.5 0.00 0.03 0.03 71 1020.9
20260906034154 15 353 9.7 12.9 0.00 0.03 0.03 70 1020.7
20260906033650 15 352 9.7 11.3 0.00 0.03 0.03 70 1021.0
20260906033149 15 355 11.3 14.5 0.00 0.03 0.03 69 1021.0
20260906032646 15 333 11.3 14.5 0.00 0.03 0.03 69 1021.1
20260906032146 15 351 8.0 9.7 0.00 0.03 0.03 68 1021.1
20260906031641 15 345 9.7 11.3 0.00 0.03 0.03 68 1021.1
20260906031136 15 325 12.9 14.5 0.00 0.03 0.03 68 1021.1
20260906030635 15 1 11.3 14.5 0.00 0.03 0.03 68 1021.0
20260906030131 15 340 14.5 17.7 0.00 0.03 0.03 67 1021.1
20260906025630 16 357 17.7 17.7 0.00 0.03 0.03 67 1021.0
20260906025129 16 1 14.5 17.7 0.00 0.03 0.03 66 1020.9
20260906024624 16 0 14.5 17.7 0.00 0.03 0.03 67 1020.2
20260906024119 16 17 11.3 12.9 0.00 0.03 0.03 67 1020.0
20260906023609 16 22 17.7 27.4 0.00 0.03 0.03 67 1019.7
20260906023104 16 32 14.5 20.9 0.00 0.03 0.03 67 1019.6
20260906022559 16 54 17.7 22.5 0.00 0.03 0.03 66 1019.2
20260906022055 16 12 16.1 20.9 0.00 0.03 0.03 64 1019.6
20260906021550 17 34 16.1 17.7 0.00 0.03 0.03 63 1019.6
20260906021049 17 348 14.5 20.9 0.00 0.03 0.03 62 1019.3
20260906020548 17 19 11.3 12.9 0.00 0.03 0.03 62 1019.5
20260906020043 17 15 11.3 12.9 0.00 0.03 0.03 61 1019.1
20260906015542 17 11 9.7 11.3 0.00 0.03 0.03 61 1019.3
20260906015042 18 23 9.7 11.3 0.00 0.03 0.03 59 1019.2
20260906014536 18 25 12.9 16.1 0.00 0.03 0.03 58 1019.3
20260906014032 18 9 17.7 20.9 0.00 0.03 0.03 56 1019.5
20260906013527 18 15 16.1 17.7 0.00 0.03 0.03 55 1019.2
20260906013023 19 18 11.3 12.9 0.00 0.03 0.03 55 1019.1
20260906012518 19 11 19.3 22.5 0.00 0.03 0.03 54 1019.0
20260906012017 20 1 19.3 22.5 0.00 0.03 0.03 53 1019.1
20260906011514 20 22 17.7 22.5 0.00 0.03 0.03 51 1019.3
20260906011013 21 354 19.3 24.1 0.00 0.03 0.03 50 1019.2
20260906010509 22 19 9.7 12.9 0.00 0.03 0.03 40 1019.1
20260906010005 22 23 6.4 9.7 0.00 0.03 0.03 40 1019.2
20260906005504 22 19 4.8 4.8 0.00 0.03 0.03 39 1019.0
20260906005003 22 29 6.4 9.7 0.00 0.03 0.03 39 1019.2
20260906004457 22 16 9.7 11.3 0.00 0.03 0.03 39 1019.5
20260906003952 23 27 9.7 12.9 0.00 0.03 0.03 39 1019.3
20260906003448 23 15 4.8 6.4 0.00 0.03 0.03 39 1019.2
20260906002943 23 20 9.7 12.9 0.00 0.03 0.03 38 1019.6
20260906002443 23 12 3.2 4.8 0.00 0.03 0.03 39 1019.2
20260906001937 23 44 6.4 9.7 0.00 0.03 0.03 38 1019.1
20260906001433 23 50 9.7 12.9 0.00 0.03 0.03 38 1019.3
20260906000928 23 8 17.7 22.5 0.00 0.03 0.03 38 1019.2
20260906000425 23 1 9.7 11.3 0.00 0.03 0.03 38 1019.5
20260905235918 24 2 6.4 11.3 0.00 0.03 0.03 38 1019.5
20260905235412 24 12 12.9 14.5 0.00 0.03 0.03 38 1019.5
20260905234908 25 32 6.4 9.7 0.00 0.03 0.03 36 1019.3
20260905234403 24 34 8.0 12.9 0.00 0.03 0.03 37 1019.5
20260905233858 24 14 8.0 9.7 0.00 0.03 0.03 37 1019.3
20260905233353 25 33 8.0 11.3 0.00 0.03 0.03 36 1019.5
20260905232852 25 51 6.4 9.7 0.00 0.03 0.03 36 1019.5